GW3792 Weather Reports


Display with metric or nautical units.
time (UTC)temp
F
wind
direction
speed
MPH
gust
MPH
rain 1hr
in
rain 24hr
in
rain mn
in
humidity
%
barometer
mb
20260508050208 68 261 19.0 36.0 0.00 0.01 0.00 73 1007.2
20260508045529 68 263 17.0 36.0 0.00 0.01 0.00 73 1007.3
20260508045025 68 259 19.0 35.0 0.00 0.01 0.00 73 1007.2
20260508044717 68 340 17.0 33.0 0.00 0.01 0.00 73 1007.0
20260508044041 68 259 20.0 33.0 0.00 0.01 0.00 73 1007.1
20260508043551 68 277 22.0 38.0 0.00 0.01 0.00 73 1006.7
20260508043146 68 267 24.0 38.0 0.00 0.01 0.00 72 1006.7
20260508042537 68 265 20.0 45.0 0.00 0.01 0.00 72 1006.6
20260508042041 68 263 30.0 45.0 0.00 0.01 0.00 72 1006.7
20260508041633 68 266 28.0 47.0 0.00 0.01 0.00 72 1006.8
20260508041042 69 273 24.0 52.0 0.00 0.01 0.00 72 1006.6
20260508040531 69 273 24.0 52.0 0.00 0.01 0.00 72 1006.9
20260508040148 68 267 27.0 42.0 0.00 0.01 0.00 72 1006.6
20260508035532 68 281 27.0 42.0 0.00 0.01 0.00 72 1006.8
20260508035026 68 265 23.0 41.0 0.00 0.01 0.00 72 1006.8
20260508034633 68 275 27.0 41.0 0.00 0.01 0.00 72 1006.8
20260508034030 68 259 27.0 41.0 0.00 0.01 0.00 72 1006.8
20260508033529 68 259 25.0 41.0 0.00 0.01 0.00 72 1006.8
20260508033129 68 259 24.0 41.0 0.00 0.01 0.00 72 1006.9
20260508032543 68 262 26.0 41.0 0.00 0.01 0.00 72 1006.9
20260508032041 68 269 22.0 41.0 0.00 0.01 0.00 72 1007.0
20260508031631 68 263 23.0 40.0 0.00 0.01 0.00 72 1007.0
20260508031026 68 341 21.0 40.0 0.00 0.01 0.00 71 1007.2
20260508030542 68 261 22.0 39.0 0.00 0.01 0.00 71 1007.4
20260508030131 68 255 21.0 38.0 0.00 0.01 0.00 71 1007.5
20260508025540 68 269 24.0 38.0 0.00 0.01 0.01 71 1007.6
20260508025030 68 261 20.0 36.0 0.00 0.01 0.01 71 1007.8
20260508024630 68 259 24.0 34.0 0.00 0.01 0.01 71 1007.7
20260508024024 68 259 21.0 39.0 0.00 0.01 0.01 71 1008.2
20260508023526 68 261 23.0 39.0 0.00 0.01 0.01 71 1008.1
20260508023125 68 259 19.0 30.0 0.00 0.01 0.01 72 1008.2
20260508022522 68 265 19.0 31.0 0.00 0.01 0.01 72 1008.3
20260508022040 68 342 18.0 34.0 0.00 0.01 0.01 72 1008.5
20260508021618 68 261 23.0 34.0 0.00 0.01 0.01 72 1008.7
20260508021039 68 266 16.0 37.0 0.00 0.01 0.01 72 1008.6
20260508020530 68 261 23.0 37.0 0.00 0.01 0.01 72 1008.6
20260508020141 68 265 18.0 37.0 0.00 0.01 0.01 72 1008.9
20260508015525 68 262 22.0 37.0 0.00 0.01 0.01 72 1008.8
20260508015021 68 272 16.0 28.0 0.00 0.01 0.01 73 1008.9
20260508014629 68 300 16.0 33.0 0.00 0.01 0.01 73 1009.1
20260508014022 68 275 19.0 33.0 0.00 0.01 0.01 73 1008.9
20260508013522 67 270 17.0 29.0 0.00 0.01 0.01 74 1009.0
20260508013108 67 270 12.0 24.0 0.00 0.01 0.01 74 1009.1
20260508012527 67 289 15.0 26.0 0.00 0.01 0.01 74 1009.1
20260508012043 67 295 14.0 26.0 0.00 0.01 0.01 74 1009.1
20260508011638 68 269 14.0 29.0 0.00 0.01 0.01 74 1009.1
20260508011039 68 287 14.0 29.0 0.00 0.01 0.01 74 1009.1
20260508010529 68 269 16.0 26.0 0.00 0.01 0.01 74 1009.1
20260508010134 67 269 12.0 27.0 0.00 0.01 0.01 74 1009.2
20260508005517 67 271 14.0 27.0 0.00 0.01 0.01 74 1009.2
20260508005030 67 277 14.0 25.0 0.00 0.01 0.01 74 1009.1
20260508004624 67 267 12.0 20.0 0.00 0.01 0.01 74 1009.3
20260508004016 67 305 10.0 19.0 0.00 0.01 0.01 74 1009.1
20260508003517 67 268 10.0 17.0 0.00 0.01 0.01 74 1009.0
20260508003202 67 265 9.0 14.0 0.00 0.01 0.01 74 1009.0
20260508002526 67 262 8.0 14.0 0.00 0.01 0.01 74 1009.1
20260508002039 67 273 8.0 14.0 0.00 0.01 0.01 74 1009.0
20260508001648 68 289 8.0 14.0 0.00 0.01 0.01 74 1009.0
20260508001042 68 307 7.0 15.0 0.00 0.01 0.01 73 1009.0
20260508000523 68 328 7.0 15.0 0.00 0.01 0.01 73 1009.2
20260508000212 68 317 6.0 16.0 0.00 0.01 0.01 73 1009.0
20260507235533 68 314 9.0 16.0 0.00 0.01 0.01 73 1009.1
20260507235028 69 275 9.0 15.0 0.00 0.01 0.01 73 1009.1
20260507234637 69 284 8.0 15.0 0.00 0.01 0.01 73 1009.2
20260507234018 68 317 6.0 15.0 0.00 0.01 0.01 73 1009.2
20260507233523 69 265 6.0 16.0 0.00 0.01 0.01 73 1009.1
20260507233123 69 279 8.0 18.0 0.00 0.01 0.01 73 1009.3
20260507232523 69 292 9.0 18.0 0.00 0.01 0.01 73 1009.3
20260507232036 69 269 8.0 16.0 0.00 0.01 0.01 73 1009.4
20260507231654 69 344 7.0 16.0 0.00 0.01 0.01 72 1009.3
20260507231042 69 342 9.0 16.0 0.00 0.01 0.01 72 1009.4
20260507230539 69 282 6.0 12.0 0.00 0.01 0.01 72 1009.3
20260507230126 69 298 6.0 14.0 0.00 0.01 0.01 72 1009.4
20260507225516 69 221 8.0 14.0 0.00 0.01 0.01 72 1009.6
20260507225047 69 261 6.0 14.0 0.00 0.01 0.01 72 1009.5
20260507224653 69 298 5.0 15.0 0.00 0.01 0.01 72 1009.6
20260507224035 69 281 6.0 13.0 0.00 0.01 0.01 72 1009.6
20260507223541 69 247 5.0 13.0 0.00 0.01 0.01 72 1009.6
20260507223211 69 262 5.0 14.0 0.00 0.01 0.01 72 1009.6
20260507222542 69 286 6.0 15.0 0.00 0.01 0.01 72 1009.6
20260507222037 69 271 6.0 15.0 0.00 0.01 0.01 72 1009.7
20260507221619 69 261 5.0 14.0 0.00 0.01 0.01 72 1009.8
20260507221029 69 344 7.0 14.0 0.00 0.01 0.01 72 1009.8
20260507220517 69 300 6.0 12.0 0.00 0.01 0.01 72 1010.0
20260507220148 69 309 5.0 11.0 0.00 0.01 0.01 72 1009.9
20260507215534 69 93 4.0 13.0 0.00 0.01 0.01 72 1009.8
20260507215042 69 272 5.0 13.0 0.00 0.01 0.01 71 1009.9
20260507214632 70 319 4.0 14.0 0.00 0.01 0.01 71 1010.0
20260507214035 70 23 6.0 15.0 0.00 0.01 0.01 71 1009.9
20260507213521 70 51 7.0 17.0 0.00 0.01 0.01 71 1010.1
20260507213154 70 286 6.0 17.0 0.00 0.01 0.01 71 1010.0
20260507212545 70 329 8.0 14.0 0.00 0.01 0.01 71 1010.0
20260507212025 70 279 7.0 14.0 0.00 0.01 0.01 71 1009.9
20260507211641 70 298 7.0 14.0 0.00 0.01 0.01 70 1010.1
20260507211043 70 261 6.0 14.0 0.00 0.01 0.01 70 1010.0
20260507210530 70 28 5.0 12.0 0.00 0.01 0.01 70 1010.0
20260507210134 70 291 3.0 12.0 0.00 0.01 0.01 70 1009.9
20260507205516 70 325 5.0 12.0 0.00 0.01 0.01 70 1009.8
20260507205029 70 265 3.0 15.0 0.00 0.01 0.01 70 1010.0
20260507204614 70 288 8.0 15.0 0.00 0.01 0.01 69 1010.1
20260507204045 71 257 7.0 14.0 0.00 0.01 0.01 70 1010.0
20260507203544 71 262 6.0 15.0 0.00 0.01 0.01 69 1010.2
20260507203121 71 262 9.0 15.0 0.00 0.01 0.01 69 1010.4
20260507202531 71 261 8.0 12.0 0.00 0.01 0.01 68 1010.3
20260507202038 72 273 7.0 18.0 0.00 0.01 0.01 68 1010.2
20260507201622 72 275 9.0 13.0 0.00 0.01 0.01 67 1010.3
20260507201033 72 277 7.0 15.0 0.00 0.01 0.01 67 1010.1
20260507200542 73 334 9.0 16.0 0.00 0.01 0.01 66 1010.0
20260507200131 73 267 10.0 16.0 0.00 0.01 0.01 66 1009.9
20260507195539 73 280 8.0 19.0 0.00 0.01 0.01 66 1010.1
20260507195028 72 280 10.0 19.0 0.00 0.01 0.01 66 1010.2
20260507194632 72 310 11.0 20.0 0.00 0.01 0.01 66 1009.9
20260507194015 72 265 9.0 20.0 0.00 0.01 0.01 66 1010.0
20260507193531 72 286 9.0 17.0 0.00 0.01 0.01 67 1009.8
20260507193131 72 277 10.0 27.0 0.00 0.01 0.01 67 1009.7
20260507192526 72 263 16.0 27.0 0.00 0.01 0.01 66 1009.8
20260507192023 72 257 11.0 18.0 0.00 0.01 0.01 67 1009.8
20260507191635 72 267 10.0 15.0 0.00 0.01 0.01 68 1009.8
20260507191020 72 288 7.0 13.0 0.00 0.01 0.01 68 1009.8
20260507190529 72 261 9.0 14.0 0.00 0.01 0.01 68 1009.8
20260507190140 72 261 9.0 16.0 0.00 0.01 0.01 68 1009.8
20260507185516 72 271 10.0 17.0 0.00 0.01 0.01 67 1009.4
20260507185045 72 261 8.0 17.0 0.00 0.01 0.01 67 1009.5
20260507184625 72 265 9.0 17.0 0.00 0.01 0.01 67 1009.6
20260507184017 73 281 9.0 26.0 0.00 0.01 0.01 67 1009.4
20260507183521 72 262 10.0 26.0 0.00 0.01 0.01 67 1009.4
20260507183057 72 268 11.0 19.0 0.00 0.01 0.01 67 1009.5
20260507182516 72 281 9.0 23.0 0.00 0.01 0.01 67 1009.4
20260507182044 73 265 14.0 26.0 0.00 0.01 0.01 66 1009.2
20260507181622 73 268 11.0 26.0 0.00 0.01 0.01 66 1009.4
20260507181024 73 267 14.0 26.0 0.00 0.01 0.01 65 1009.4
20260507180546 73 262 12.0 21.0 0.00 0.01 0.01 65 1009.4
20260507180123 73 280 14.0 31.0 0.00 0.01 0.01 64 1009.3
20260507175533 73 277 16.0 32.0 0.00 0.01 0.01 64 1009.4
20260507175035 74 288 18.0 32.0 0.00 0.01 0.01 63 1009.6
20260507174638 74 257 16.0 33.0 0.00 0.01 0.01 63 1009.6
20260507174025 75 263 22.0 33.0 0.00 0.01 0.01 62 1009.6
20260507173546 75 266 21.0 33.0 0.00 0.01 0.01 62 1009.6
20260507173132 75 281 14.0 31.0 0.00 0.01 0.01 62 1009.7
20260507172532 75 290 18.0 35.0 0.00 0.01 0.01 63 1009.6
20260507172026 75 262 16.0 42.0 0.00 0.01 0.01 63 1009.8
20260507171606 76 259 24.0 38.0 0.00 0.01 0.01 61 1009.8
20260507171041 77 259 18.0 39.0 0.00 0.01 0.01 60 1009.8
20260507170533 77 261 26.0 39.0 0.00 0.01 0.01 61 1009.7
20260507170117 77 265 21.0 35.0 0.00 0.01 0.01 62 1010.1
20260507165542 77 277 18.0 35.0 0.00 0.01 0.01 61 1010.1
20260507165042 77 265 15.0 33.0 0.00 0.01 0.01 63 1010.0
20260507164641 77 263 20.0 33.0 0.00 0.01 0.01 63 1010.1
20260507164020 76 261 17.0 39.0 0.00 0.01 0.01 63 1010.1
20260507163527 76 277 22.0 39.0 0.00 0.01 0.01 63 1010.2
20260507163133 75 257 23.0 39.0 0.00 0.01 0.01 62 1010.2
20260507162540 75 294 21.0 39.0 0.00 0.01 0.01 64 1010.5
20260507162035 74 261 22.0 36.0 0.00 0.01 0.01 64 1010.6
20260507161631 75 263 21.0 40.0 0.00 0.01 0.01 62 1010.7
20260507161029 75 293 23.0 40.0 0.00 0.01 0.01 62 1010.7
20260507160541 75 261 18.0 44.0 0.00 0.01 0.01 63 1010.8
20260507160137 75 261 21.0 44.0 0.00 0.01 0.01 62 1010.8
20260507155535 75 280 24.0 35.0 0.00 0.01 0.01 62 1010.9
20260507155026 75 268 20.0 39.0 0.00 0.01 0.01 63 1010.9
20260507154639 76 284 21.0 39.0 0.00 0.01 0.01 62 1010.9
20260507154041 76 275 23.0 38.0 0.00 0.01 0.01 64 1011.0
20260507153548 76 272 21.0 34.0 0.00 0.01 0.01 64 1011.1
20260507153133 76 268 14.0 34.0 0.00 0.01 0.01 64 1011.2
20260507152545 75 261 15.0 33.0 0.00 0.01 0.01 65 1011.0
20260507152043 75 263 19.0 34.0 0.00 0.01 0.01 63 1011.1
20260507151635 75 268 24.0 36.0 0.00 0.01 0.01 64 1011.6
20260507151041 74 286 16.0 36.0 0.00 0.01 0.01 66 1011.9
20260507150520 74 269 16.0 32.0 0.00 0.01 0.01 67 1011.9
20260507150142 73 261 19.0 28.0 0.00 0.01 0.01 68 1012.2
20260507145532 72 264 14.0 31.0 0.00 0.01 0.01 69 1012.2
20260507145034 71 261 14.0 27.0 0.00 0.01 0.01 71 1012.2
20260507144635 71 259 16.0 27.0 0.00 0.01 0.01 71 1012.3
20260507144027 71 265 15.0 31.0 0.00 0.01 0.01 71 1012.5
20260507143542 71 306 17.0 31.0 0.00 0.01 0.01 71 1012.8
20260507143103 71 259 14.0 29.0 0.00 0.01 0.01 71 1012.8
20260507142541 72 255 15.0 28.0 0.00 0.01 0.01 70 1013.2
20260507142019 72 294 17.0 31.0 0.00 0.01 0.01 70 1013.2
20260507141634 72 281 20.0 31.0 0.00 0.01 0.01 71 1013.3
20260507141037 72 272 14.0 28.0 0.00 0.01 0.01 72 1013.5
20260507140533 71 257 16.0 31.0 0.00 0.01 0.01 71 1013.6
20260507140141 71 282 17.0 31.0 0.00 0.01 0.01 71 1013.8
20260507135530 71 272 18.0 27.0 0.00 0.01 0.01 71 1013.9
20260507135024 71 263 11.0 23.0 0.00 0.01 0.01 72 1014.0
20260507134634 70 297 12.0 19.0 0.00 0.01 0.01 73 1014.0
20260507134021 70 265 11.0 21.0 0.00 0.01 0.01 72 1014.2
20260507133521 70 263 13.0 21.0 0.00 0.01 0.01 72 1014.2
20260507133153 70 261 9.0 23.0 0.00 0.01 0.01 73 1014.4
20260507132526 70 265 13.0 29.0 0.00 0.01 0.01 73 1014.4
20260507132041 69 293 15.0 29.0 0.00 0.01 0.01 73 1014.4
20260507131647 69 277 10.0 26.0 0.00 0.01 0.01 74 1014.6
20260507131044 70 273 13.0 26.0 0.00 0.01 0.01 74 1014.4
20260507130541 70 288 13.0 25.0 0.00 0.01 0.01 73 1014.5
20260507130154 70 277 13.0 25.0 0.00 0.01 0.01 74 1014.4
20260507125526 70 281 16.0 25.0 0.00 0.01 0.01 75 1014.5
20260507125042 69 282 10.0 18.0 0.00 0.01 0.01 77 1014.7
20260507124653 68 259 12.0 23.0 0.00 0.01 0.01 77 1014.7
20260507124019 68 262 13.0 23.0 0.00 0.01 0.01 77 1014.7
20260507123517 68 271 11.0 24.0 0.00 0.01 0.01 77 1014.9
20260507123201 68 271 12.0 24.0 0.00 0.01 0.01 77 1014.7
20260507122529 67 247 10.0 20.0 0.00 0.01 0.01 77 1014.7
20260507122036 67 261 11.0 20.0 0.00 0.01 0.01 78 1014.8
20260507121700 67 269 11.0 17.0 0.00 0.01 0.01 79 1014.7
20260507121026 66 287 8.0 17.0 0.00 0.01 0.01 80 1015.0
20260507120520 66 261 10.0 16.0 0.00 0.01 0.01 81 1014.9
20260507120155 66 298 9.0 16.0 0.00 0.01 0.01 81 1015.1
20260507115526 66 273 9.0 17.0 0.00 0.01 0.01 82 1015.2
20260507115040 65 347 10.0 17.0 0.00 0.01 0.01 82 1015.4
20260507114707 65 262 7.0 20.0 0.00 0.01 0.01 82 1015.2
20260507114026 65 292 9.0 20.0 0.00 0.01 0.01 81 1015.2
20260507113524 65 273 8.0 19.0 0.00 0.01 0.01 82 1015.3
20260507113126 65 284 8.0 17.0 0.00 0.01 0.01 82 1015.3
20260507112515 65 267 7.0 17.0 0.00 0.01 0.01 82 1015.3
20260507112028 65 254 8.0 14.0 0.00 0.01 0.01 82 1015.4
20260507111700 65 261 6.0 14.0 0.00 0.01 0.01 82 1015.4
20260507111024 65 323 5.0 13.0 0.00 0.01 0.01 82 1015.3
20260507110533 65 286 7.0 13.0 0.00 0.01 0.01 82 1015.4
20260507110205 64 310 7.0 13.0 0.00 0.01 0.01 82 1015.5
20260507105538 64 305 5.0 13.0 0.00 0.01 0.01 82 1015.4
20260507105031 64 9 8.0 15.0 0.01 0.01 0.01 83 1015.4
20260507104655 64 309 7.0 15.0 0.01 0.01 0.01 83 1015.2
20260507104015 64 317 9.0 17.0 0.01 0.01 0.01 83 1015.3
20260507103533 64 338 9.0 17.0 0.01 0.01 0.01 83 1015.4
20260507103155 64 323 6.0 16.0 0.01 0.01 0.01 83 1015.4
20260507102521 64 265 8.0 14.0 0.01 0.01 0.01 82 1015.1
20260507102037 64 269 7.0 14.0 0.01 0.01 0.01 82 1015.3
20260507101649 64 289 6.0 10.0 0.01 0.01 0.01 82 1015.1
20260507101038 64 265 4.0 9.0 0.01 0.01 0.01 82 1015.2
20260507100519 64 57 6.0 14.0 0.01 0.01 0.01 82 1015.4
20260507100154 65 311 6.0 14.0 0.01 0.01 0.01 82 1015.5
20260507095520 65 334 4.0 9.0 0.01 0.01 0.01 81 1015.2
20260507095032 65 257 4.0 9.0 0.00 0.00 0.00 81 1015.2
20260507094625 65 261 4.0 10.0 0.00 0.00 0.00 81 1015.2
20260507094017 65 70 4.0 11.0 0.00 0.00 0.00 81 1015.3
20260507093527 65 51 3.0 11.0 0.00 0.00 0.00 81 1015.4
20260507093112 65 51 4.0 10.0 0.00 0.00 0.00 81 1015.5
20260507092546 65 296 4.0 10.0 0.00 0.00 0.00 81 1015.3
20260507092025 65 310 4.0 11.0 0.00 0.00 0.00 81 1015.3
20260507091653 65 259 5.0 11.0 0.00 0.00 0.00 80 1015.2
20260507091023 65 304 6.0 11.0 0.00 0.00 0.00 80 1015.4
20260507090542 65 317 4.0 10.0 0.00 0.00 0.00 80 1015.3
20260507090157 65 279 5.0 11.0 0.00 0.00 0.00 80 1015.3
20260507085533 65 282 5.0 14.0 0.00 0.00 0.00 79 1015.5
20260507085016 65 54 6.0 13.0 0.00 0.00 0.00 79 1015.5
20260507084624 65 284 7.0 13.0 0.00 0.00 0.00 79 1015.4
20260507084032 65 300 5.0 14.0 0.00 0.00 0.00 79 1015.4
20260507083517 65 323 5.0 14.0 0.00 0.00 0.00 79 1015.5
20260507083147 65 309 4.0 11.0 0.00 0.00 0.00 79 1015.6
20260507082539 65 268 6.0 11.0 0.00 0.00 0.00 79 1015.5
20260507082023 65 268 4.0 10.0 0.00 0.00 0.00 79 1015.7
20260507081644 65 259 6.0 12.0 0.00 0.00 0.00 79 1015.5
20260507081038 65 289 6.0 12.0 0.00 0.00 0.00 80 1015.6
20260507080532 65 286 4.0 9.0 0.00 0.00 0.00 80 1015.7
20260507080151 65 41 3.0 9.0 0.00 0.00 0.00 80 1015.4
20260507075517 65 291 3.0 10.0 0.00 0.00 0.00 80 1015.7
20260507075033 65 55 4.0 10.0 0.00 0.00 0.00 80 1015.9
20260507074630 65 334 3.0 9.0 0.00 0.00 0.00 81 1016.1
20260507074017 65 293 4.0 8.0 0.00 0.00 0.00 81 1015.9
20260507073524 65 262 4.0 8.0 0.00 0.00 0.00 81 1016.1
20260507073135 65 319 4.0 10.0 0.00 0.00 0.00 81 1016.0
20260507072536 65 282 5.0 12.0 0.00 0.00 0.00 81 1016.1
20260507072031 65 265 3.0 12.0 0.00 0.00 0.00 81 1016.3
20260507071630 64 304 4.0 10.0 0.00 0.00 0.00 82 1016.3
20260507071027 64 296 4.0 9.0 0.00 0.00 0.00 82 1016.3
20260507070542 64 309 4.0 9.0 0.00 0.00 0.00 81 1016.4
20260507070116 64 24 4.0 13.0 0.00 0.00 0.00 81 1016.5
20260507065539 65 314 5.0 13.0 0.00 0.00 0.00 81 1016.5
20260507065033 65 332 5.0 11.0 0.00 0.00 0.00 81 1016.4
20260507064700 65 265 4.0 11.0 0.00 0.00 0.00 80 1016.5
20260507064041 65 317 5.0 12.0 0.00 0.00 0.00 80 1016.7
20260507063527 65 265 6.0 12.0 0.00 0.00 0.00 80 1016.4
20260507063141 65 275 6.0 14.0 0.00 0.00 0.00 80 1016.4
20260507062519 64 262 7.0 14.0 0.00 0.00 0.00 80 1016.5
20260507062033 64 272 5.0 12.0 0.00 0.00 0.00 80 1016.6
20260507061926 64 265 4.0 11.0 0.00 0.00 0.00 80 1016.7
20260507061757 64 265 4.0 11.0 0.00 0.00 0.00 80 1016.7
20260507061033 64 300 5.0 11.0 0.00 0.00 0.00 80 1016.9
20260507060535 64 344 7.0 14.0 0.00 0.00 0.00 80 1016.9
20260507060233 64 360 7.0 14.0 0.00 0.00 0.00 80 1017.0
20260507055540 64 309 6.0 12.0 0.00 0.01 0.00 80 1017.1
20260507055033 64 280 7.0 14.0 0.00 0.01 0.00 81 1016.9
20260507054801 63 295 7.0 16.0 0.00 0.01 0.00 82 1017.2
20260507054019 62 302 7.0 16.0 0.00 0.01 0.00 84 1017.1
20260507053537 61 273 5.0 8.0 0.00 0.01 0.00 84 1017.2
20260507053241 61 265 3.0 7.0 0.00 0.01 0.00 83 1017.4
20260507052537 61 268 4.0 7.0 0.00 0.01 0.00 83 1017.4
20260507052042 61 273 3.0 8.0 0.00 0.01 0.00 83 1017.4
20260507051802 61 257 5.0 8.0 0.00 0.01 0.00 83 1017.5
20260507051022 61 269 4.0 8.0 0.00 0.01 0.00 83 1017.6
20260507050542 62 261 4.0 7.0 0.00 0.01 0.00 84 1017.6